OBJECT AC

基本信息
目录编号:
57192
目录名称:
OBJECT AC
国际标识:
2023-091AC
轨道中心:
EARTH
物体状态:
在轨
发射日期:
2023-06-27 UTC
国别:
(TBD)
轨道信息
数据来源: 国际轨道数据
星历时间: 2026-09-04T04:03:52+0800
半长轴: 6862.251km
偏心率: 0.0011199
轨道倾角: 97.499°
近地点辐角: 181.159°
升交点赤经: 310.228°
平近点角: 178.962°
近地点: 476.428km
远地点: 491.8km
周期: 94.289分钟
每日圈数: 15.272247
详细信息
发射场:
VOSTO
轨道高度:
LEO
数据来源:
AOE Integration Group
参考系:
TEME
时间系统:
UTC
历元类型:
SGP4
2D轨道图
3D轨道图
轨道高度分析图
轨道倾角分析图
轨道综合分析图
查看轨道综合分析图